Location: Bosmont
(49.7318°N, 3.8587°E)
Time: 00:19:11
(UTC+00:00)

Cosmos 1340 - Pass Details

Date: 08 February 2023
Orbit: 478 x 482 km, 81.2° (Epoch: 01 April)

Event Time Altitude Azimuth Distance (km) Brightness Sun altitude
Rises 18:06:38 0° 345° (NNW) 2,559 6.3 -12.6°
Reaches altitude 10° 18:08:45 10° 342° (NNW) 1,676 5.4 -12.9°
Maximum altitude 18:12:23 63° 261° (W) 549 3.1 -13.5°
Drops below altitude 10° 18:16:00 10° 180° (S) 1,670 5.4 -14.1°
Sets 18:18:06 0° 177° (S) 2,549 6.3 -14.4°
